Vertical_Velocity
-3 0 1 0 -0 -2 -2 -4 3 -0 -2 -2 0 0 -3 -1 -1 -1 -0 1 1 3 3 2 3 5 4 6 1 -0 -1 2 2 2 -1 1 2 5 1 0 1 2 6
-4 -2 -0 -1 2 -2 -0 -1 3 -1 -6 -0 -1 -0 -4 -3 -2 -2 -1 1 -0 1 0 1 -0 -1 -1 1 1 1 -0 1 3 7 0 -3 -1 1 1 0 1 -0 -1
-5 -1 -1 0 2 2 1 -0 3 -3 -1 -1 -4 3 -1 -2 -2 -1 -1 -1 0 2 1 1 -0 -1 -0 1 3 -0 -2 -3 -3 -0 -1 -1 -1 -0 6 -2 -2 -0 -0
-5 -1 1 -3 -0 -0 -2 1 0 1 -1 -1 -6 0 -2 -2 -3 -2 -1 -2 -2 -1 -2 -1 -1 -1 -0 1 0 -0 0 -2 -3 -2 -1 -1 -3 -3 1 -1 -2 -1 -3
1 -1 -1 -2 -3 1 0 4 2 0 1 -3 -4 -1 -3 -0 -1 -3 -1 -0 -1 -0 0 1 -0 -2 -1 -0 -0 -0 -1 -0 -0 -2 1 -1 0 -3 -3 -4 -4 -2 -5
-3 -3 5 -1 -4 7 3 8 1 1 0 -2 -2 -1 0 -0 -1 -3 -3 -2 -4 -4 -5 -4 -3 -2 -0 -0 -0 -0 -1 -3 -2 -2 -2 -1 0 -2 -1 -1 -0 -0 -2
-0 7 -5 6 1 12 0 6 4 2 -2 -1 -1 3 1 -0 -1 -2 -0 1 -2 -2 -2 -2 -2 -2 -1 -1 -2 -2 -0 -0 -0 -1 0 -0 -1 1 -1 -1 0 -2 -3
3 0 -2 3 2 8 -4 3 2 1 1 -1 1 3 2 0 -0 -2 -2 -1 0 -2 -3 -2 -2 -3 -2 -1 -0 -0 -1 -1 0 0 -1 -1 -1 -1 -0 0 -2 -1 -2
8 2 -1 -2 3 2 -0 1 2 1 -1 1 1 0 1 -1 -1 -2 -2 -0 -2 -2 -3 -2 -1 -2 -3 -1 0 -0 -1 -2 0 -0 -0 -0 0 1 -0 -0 -2 -0 -1
-3 -2 -1 0 2 1 0 3 2 2 -1 1 1 -3 -0 0 -2 -3 -4 -0 1 -1 -3 -2 -0 -1 -1 -1 -1 1 -0 0 0 0 2 -1 0 -0 1 0 -2 1 -6
0 0 -1 0 1 1 1 2 2 4 2 1 -2 1 0 -0 1 -0 -1 -2 -4 -4 -1 -3 -1 1 -1 -3 -2 -1 0 -0 1 -2 -2 -0 3 4 2 -2 -1 5 -3
-0 -1 -0 1 2 1 0 1 1 0 3 1 -1 1 0 1 -1 -2 -2 -5 -3 -3 3 0 -1 -3 1 0 -1 -1 -1 -1 -1 -2 -2 2 -4 4 1 -2 -1 3 -1
1 1 1 -1 -2 -0 0 1 -1 -3 -3 -1 1 1 1 -0 -1 -1 -3 -0 -1 -2 -0 -1 -0 1 1 0 -1 1 0 -2 2 -0 -2 1 1 2 -4 -5 -2 1 2
-0 -1 -2 -1 -1 -0 -0 1 -1 -0 -1 2 3 -3 3 -0 -0 0 -0 1 1 1 3 -4 1 -2 0 2 -2 1 0 -1 -1 1 -1 -1 -1 2 -3 -4 -2 1 3
1 -3 -2 -1 -1 -1 -1 -1 -1 0 -0 -0 0 1 2 1 -3 1 1 -1 0 1 -1 -0 -1 1 0 -0 0 -2 -0 1 -1 2 -0 1 -1 -1 -1 -1 1 2 -3
-0 -2 -1 -0 0 -1 -1 -1 -2 -1 -2 -2 -3 -2 -2 1 3 0 -0 -0 -0 -0 2 1 1 1 -1 -3 -3 -2 0 1 1 -1 2 1 -3 2 -2 -2 1 2 0
-0 -1 -2 -2 -1 -1 -0 -1 -2 -2 -1 -1 -3 -2 -0 0 1 -0 1 1 1 1 0 -1 -1 -2 -0 -2 1 1 -3 2 1 -0 1 0 -2 2 -1 -2 -0 1 -2
-1 -2 -3 -2 -3 -2 -0 0 2 3 2 -4 -1 -1 0 -1 -0 0 1 0 0 0 1 -1 -2 -2 -1 1 1 -2 -0 2 -1 0 -0 0 2 -0 1 -0 -0 0 -2
1 0 -0 -0 -0 -1 -0 -1 -2 -4 -6 2 -4 -2 -2 -1 0 1 1 1 1 -2 -2 -0 1 1 1 0 2 1 -1 -2 1 -1 -1 0 1 5 -2 3 1 -3 -1
1 2 0 0 -1 -2 -2 -3 -1 -1 -4 -7 -9 -0 -1 -2 -2 -0 -1 -1 -0 -1 -1 0 -3 -1 0 -1 2 -2 -0 2 3 0 -1 -1 1 4 1 2 1 -3 1
-0 0 -1 -1 -1 -2 -1 -2 -1 -2 -4 -1 -0 -4 -7 -3 -5 -8 -5 -3 -1 -1 -3 -1 2 1 -3 -3 4 4 -1 -1 -1 -1 1 2 1 2 2 2 -0 -1 -0
-1 1 -0 -2 -1 -3 -1 -2 -5 -3 -2 -3 -10 0 -0 -0 -1 -0 -4 -2 -2 -2 -1 3 2 0 -0 -2 -3 -0 -1 0 -1 0 0 2 2 0 1 2 -0 1 1
-1 -1 -1 -2 -1 -1 -2 -3 11 10 1 4 8 -7 -2 -4 -4 -6 -5 -4 -2 -2 -3 1 3 2 0 3 3 1 -1 -1 0 1 -1 -1 -1 0 0 1 1 1 1
-0 6 2 6 -3 -0 -1 6 -7 1 -0 1 -1 5 4 6 7 16 7 2 -2 1 -2 -9 -8 -3 -0 2 0 -2 -3 1 -0 0 1 1 -1 0 0 0 0 1 1
-2 -4 -2 -3 5 -3 2 1 1 1 5 -5 0 -2 4 2 -2 -4 -4 0 -1 1 4 15 4 -1 -3 -6 -4 1 -5 0 -2 -2 -2 0 -0 -1 1 2 0 -1 1
1 2 -2 -1 -5 -4 -2 -5 1 -0 -6 4 3 4 19 13 13 10 10 -5 -4 -1 -4 -0 -2 3 8 7 7 -1 5 -1 2 1 -1 -3 -1 1 -1 -2 1 2 2
Height
3175 3177 3178 3179 3179 3176 3173 3170 3167 3165 3162 3161 3158 3156 3154 3151 3150 3149 3149 3148 3149 3149 3148 3149 3149 3150 3151 3152 3153 3154 3155 3157 3157 3157 3155 3155 3155 3153 3153 3152 3152 3152 3151
3174 3177 3178 3178 3177 3175 3173 3170 3167 3166 3163 3160 3159 3157 3155 3153 3151 3150 3150 3149 3149 3148 3148 3147 3147 3148 3147 3148 3149 3151 3152 3153 3153 3153 3150 3151 3150 3149 3148 3148 3148 3145 3145
3172 3176 3176 3177 3177 3174 3173 3170 3168 3165 3163 3161 3160 3158 3157 3154 3152 3151 3150 3150 3149 3148 3147 3147 3147 3147 3147 3146 3146 3147 3148 3148 3148 3148 3147 3146 3145 3143 3141 3142 3142 3142 3140
3173 3175 3177 3177 3176 3174 3172 3169 3167 3165 3163 3161 3160 3158 3157 3156 3154 3152 3151 3151 3150 3149 3147 3146 3146 3145 3145 3145 3145 3145 3145 3144 3144 3144 3143 3142 3141 3140 3138 3139 3138 3138 3137
3175 3176 3177 3175 3174 3172 3170 3168 3167 3165 3163 3161 3160 3159 3157 3156 3155 3153 3152 3151 3150 3149 3148 3147 3145 3144 3144 3143 3143 3143 3142 3141 3141 3141 3140 3140 3140 3139 3138 3136 3135 3134 3134
3174 3176 3176 3174 3173 3171 3169 3168 3166 3165 3163 3161 3159 3159 3158 3156 3155 3153 3153 3151 3150 3149 3147 3146 3145 3144 3143 3142 3142 3141 3141 3140 3140 3139 3139 3138 3137 3136 3135 3133 3132 3131 3132
3175 3175 3172 3172 3171 3170 3168 3167 3165 3163 3161 3160 3158 3158 3157 3156 3155 3153 3152 3151 3150 3148 3146 3144 3143 3143 3143 3142 3141 3140 3139 3139 3137 3136 3136 3136 3134 3133 3131 3131 3130 3130 3129
3173 3173 3172 3171 3169 3168 3165 3164 3163 3161 3159 3158 3157 3156 3156 3155 3154 3153 3151 3150 3149 3147 3146 3144 3143 3142 3142 3141 3140 3139 3138 3137 3135 3134 3133 3132 3131 3130 3129 3129 3128 3127 3126
3171 3171 3170 3169 3168 3165 3162 3161 3159 3158 3156 3155 3155 3154 3154 3153 3152 3151 3150 3149 3147 3146 3144 3143 3141 3140 3139 3140 3139 3138 3136 3135 3133 3132 3131 3130 3128 3127 3127 3126 3124 3122 3122
3167 3167 3166 3164 3162 3160 3158 3157 3156 3153 3152 3152 3152 3151 3151 3150 3149 3148 3148 3147 3146 3144 3142 3141 3140 3138 3137 3136 3136 3135 3134 3132 3129 3128 3128 3127 3125 3124 3123 3122 3120 3119 3116
3164 3163 3162 3160 3158 3156 3154 3152 3150 3149 3148 3148 3148 3148 3148 3148 3147 3145 3145 3144 3142 3140 3140 3138 3137 3136 3135 3134 3133 3132 3130 3128 3127 3126 3125 3124 3122 3121 3119 3118 3117 3116 3112
3160 3159 3158 3156 3154 3151 3149 3147 3145 3144 3144 3145 3144 3145 3144 3144 3144 3142 3142 3142 3140 3138 3136 3135 3134 3134 3132 3131 3130 3128 3126 3124 3123 3121 3120 3119 3117 3117 3116 3115 3114 3113 3111
3156 3155 3153 3151 3150 3148 3146 3144 3142 3140 3140 3141 3140 3142 3141 3141 3140 3139 3138 3138 3137 3134 3133 3132 3131 3130 3129 3128 3126 3124 3123 3121 3119 3117 3116 3116 3115 3113 3113 3112 3111 3109 3108
3152 3150 3149 3147 3146 3144 3142 3141 3139 3137 3137 3138 3137 3137 3137 3136 3137 3135 3135 3134 3132 3130 3129 3128 3127 3126 3125 3124 3122 3120 3119 3117 3115 3114 3112 3112 3111 3110 3109 3108 3107 3105 3104
3148 3147 3145 3144 3142 3141 3140 3138 3136 3135 3134 3134 3133 3133 3133 3133 3133 3132 3131 3130 3128 3127 3125 3124 3122 3121 3120 3119 3118 3115 3114 3112 3111 3111 3109 3108 3107 3106 3105 3104 3103 3102 3100
3144 3143 3142 3140 3139 3138 3136 3135 3133 3132 3130 3129 3129 3129 3129 3129 3128 3127 3126 3124 3123 3122 3120 3119 3117 3116 3115 3113 3111 3110 3109 3109 3108 3108 3106 3105 3103 3102 3101 3101 3100 3099 3097
3141 3139 3138 3137 3135 3134 3133 3131 3130 3129 3128 3127 3126 3126 3125 3125 3124 3122 3121 3120 3118 3118 3116 3114 3113 3111 3110 3109 3108 3107 3105 3106 3104 3103 3102 3101 3099 3099 3098 3098 3097 3096 3094
3136 3135 3134 3132 3132 3130 3129 3128 3127 3126 3126 3124 3123 3122 3121 3120 3119 3118 3117 3116 3115 3113 3112 3110 3108 3108 3107 3106 3106 3104 3103 3102 3100 3099 3098 3097 3096 3096 3095 3094 3093 3092 3091
3132 3132 3131 3130 3129 3127 3126 3125 3123 3122 3122 3122 3120 3119 3117 3116 3114 3113 3112 3111 3110 3109 3108 3107 3106 3105 3104 3103 3102 3100 3098 3096 3096 3094 3093 3092 3092 3092 3091 3090 3089 3088 3087
3129 3129 3128 3127 3126 3125 3124 3122 3122 3121 3119 3117 3116 3117 3115 3114 3112 3110 3109 3108 3107 3106 3106 3105 3103 3102 3101 3099 3097 3095 3093 3092 3090 3089 3088 3088 3088 3088 3087 3086 3086 3084 3084
3126 3126 3125 3125 3124 3123 3123 3122 3121 3120 3118 3117 3116 3114 3113 3111 3109 3106 3106 3106 3105 3105 3103 3102 3101 3098 3095 3094 3093 3091 3089 3087 3085 3085 3084 3083 3082 3083 3082 3082 3081 3080 3080
3124 3124 3124 3123 3123 3123 3122 3121 3121 3120 3119 3117 3114 3114 3113 3112 3110 3108 3106 3104 3103 3101 3100 3099 3097 3095 3093 3089 3086 3084 3084 3082 3081 3079 3078 3077 3077 3077 3076 3076 3075 3075 3075
3121 3122 3123 3123 3123 3123 3121 3121 3122 3121 3120 3119 3116 3111 3111 3108 3105 3104 3103 3102 3101 3099 3097 3096 3094 3092 3090 3087 3084 3082 3079 3077 3076 3074 3073 3072 3071 3071 3071 3070 3070 3069 3069
3122 3122 3121 3120 3121 3121 3120 3120 3118 3118 3118 3116 3114 3112 3109 3107 3105 3104 3101 3098 3095 3095 3092 3088 3086 3085 3084 3083 3080 3078 3076 3074 3072 3070 3069 3068 3067 3066 3065 3064 3063 3063 3062
3117 3117 3118 3118 3117 3117 3116 3116 3115 3114 3112 3110 3110 3108 3107 3104 3102 3099 3098 3095 3092 3089 3086 3085 3082 3079 3077 3074 3073 3072 3071 3069 3067 3065 3063 3062 3060 3059 3058 3057 3057 3056 3056
3114 3113 3113 3114 3113 3111 3111 3110 3110 3109 3107 3107 3105 3103 3103 3101 3098 3096 3092 3085 3083 3082 3079 3077 3075 3073 3070 3067 3066 3061 3060 3061 3061 3060 3058 3056 3055 3053 3051 3049 3049 3048 3048